Weather History for Appleton, WI

Change the Weather History Date:

Saturday, April 7, 2012

  Actual Average Record
Temperature  
Mean Temperature 46 °F -  
Max Temperature 60 °F 51 °F 75 °F (2001)
Min Temperature 33 °F 31 °F 17 °F (1972)
Degree Days  
Heating Degree Days 18    
Moisture  
Dew Point 33 °F    
Average Humidity 67    
Maximum Humidity 100    
Minimum Humidity 39    
Precipitation  
Precipitation 0.00 in - - ()
Sea Level Pressure  
Sea Level Pressure 30.18 in    
Wind  
Wind Speed 5 mph (South)    
Max Wind Speed 21 mph    
Max Gust Speed 28 mph    
Visibility 10 miles    
Events Rain    
Averages and records for this station are not official NWS values.
T = Trace of Precipitation, MM = Missing Value Source: NWS Daily Summary

Daily Weather History Graph

Daily Weather History Graph

Search for Another Location

Airport:

Trip Planner

Search our weather history database for the weather conditions in past years. The results will help you decide how hot, cold, wet, or windy it might be!

Date:

Astronomy

Apr. 07, 2012 Rise Set
Actual Time 6:23 AM CDT 7:29 PM CDT
Civil Twilight 5:53 AM CDT 7:59 PM CDT
Nautical Twilight 5:18 AM CDT 8:34 PM CDT
Astronomical Twilight 4:41 AM CDT 9:12 PM CDT
Moon 9:08 PM CDT (4/7) 6:31 AM CDT (4/7)
Length of Visible Light 14h 05m
Length of Day
13h 05m
Full, 99% of the Moon is Illuminated
Apr 7
Full
Apr 13
Last Quarter
Apr 21
New
Apr 29
First Quarter
May 5
Full

Hourly Weather History & Observations

Time (CDT) Temp. Windchill Dew Point Humidity Pressure Visibility Wind Dir Wind Speed Gust Speed Precip Events Conditions
12:15 AM 37.4 °F 33.8 °F 28.4 °F 70% 30.22 in 10.0 mi SE 4.6 mph - N/A   Clear
12:35 AM 39.2 °F 37.0 °F 28.4 °F 65% 30.22 in 10.0 mi SE 3.5 mph - N/A   Clear
12:55 AM 39.2 °F 37.0 °F 28.4 °F 65% 30.22 in 10.0 mi SE 3.5 mph - N/A   Clear
1:15 AM 37.4 °F 32.8 °F 28.4 °F 70% 30.23 in 10.0 mi SE 5.8 mph - N/A   Clear
1:35 AM 37.4 °F 33.8 °F 28.4 °F 70% 30.23 in 10.0 mi SSE 4.6 mph - N/A   Clear
1:55 AM 37.4 °F - 28.4 °F 70% 30.22 in 10.0 mi Calm Calm - N/A   Clear
2:15 AM 37.4 °F - 28.4 °F 70% 30.23 in 10.0 mi Calm Calm - N/A   Clear
2:35 AM 37.4 °F - 28.4 °F 70% 30.23 in 10.0 mi Calm Calm - N/A   Clear
2:55 AM 35.6 °F - 28.4 °F 75% 30.23 in 10.0 mi Calm Calm - N/A   Clear
3:15 AM 37.4 °F - 28.4 °F 70% 30.24 in 10.0 mi Calm Calm - N/A   Clear
3:35 AM 37.4 °F - 28.4 °F 70% 30.24 in 10.0 mi Calm Calm - N/A   Clear
3:55 AM 37.4 °F - 28.4 °F 70% 30.24 in 10.0 mi Calm Calm - N/A   Clear
4:15 AM 37.4 °F - 28.4 °F 70% 30.24 in 10.0 mi Calm Calm - N/A   Clear
4:35 AM 37.4 °F 34.9 °F 26.6 °F 65% 30.25 in 10.0 mi SSW 3.5 mph - N/A   Clear
4:55 AM 35.6 °F 32.8 °F 24.8 °F 65% 30.24 in 10.0 mi South 3.5 mph - N/A   Clear
5:45 AM 33.8 °F 28.6 °F 23.0 °F 65% 30.25 in 10.0 mi South 5.8 mph - N/A   Scattered Clouds
6:45 AM 35.6 °F - 26.6 °F 70% 30.26 in 10.0 mi Calm Calm - N/A   Scattered Clouds
7:45 AM 37.4 °F - 28.4 °F 70% 30.24 in 10.0 mi Calm Calm - N/A   Scattered Clouds
8:45 AM 44.6 °F 42.2 °F 33.8 °F 66% 30.24 in 10.0 mi Variable 4.6 mph - N/A   Scattered Clouds
9:45 AM 50.0 °F - 30.2 °F 47% 30.23 in 10.0 mi South 8.1 mph - N/A   Scattered Clouds
10:45 AM 51.8 °F - 33.8 °F 50% 30.22 in 10.0 mi SSE 6.9 mph - N/A   Scattered Clouds
11:45 AM 55.4 °F - 35.6 °F 47% 30.20 in 10.0 mi SE 8.1 mph - N/A   Scattered Clouds
12:45 PM 59.0 °F - 37.4 °F 45% 30.18 in 10.0 mi SSE 11.5 mph - N/A   Scattered Clouds
1:45 PM 60.8 °F - 35.6 °F 39% 30.16 in 10.0 mi South 15.0 mph 19.6 mph N/A   Mostly Cloudy
2:45 PM 60.8 °F - 35.6 °F 39% 30.13 in 10.0 mi South 12.7 mph 19.6 mph N/A   Mostly Cloudy
3:45 PM 60.8 °F - 35.6 °F 39% 30.11 in 10.0 mi SSW 10.4 mph 18.4 mph N/A   Overcast
4:45 PM 60.8 °F - 35.6 °F 39% 30.07 in 10.0 mi South 13.8 mph - N/A   Overcast
6:45 PM 59.0 °F - 35.6 °F 42% 30.04 in 10.0 mi SSE 10.4 mph - N/A   Overcast
8:45 PM 55.4 °F - 42.8 °F 63% 30.06 in 10.0 mi WSW 20.7 mph 27.6 mph N/A   Overcast
9:45 PM 48.2 °F - 48.2 °F 100% 30.07 in 7.0 mi WSW 10.4 mph - N/A Rain Light Rain
10:45 PM 48.2 °F - 48.2 °F 100% 30.06 in 7.0 mi WSW 9.2 mph - N/A Rain Light Rain
10:55 PM 48.2 °F - 46.4 °F 93% 30.08 in 10.0 mi West 11.5 mph - N/A   Overcast
11:15 PM 46.4 °F 41.1 °F 44.6 °F 93% 30.09 in 10.0 mi West 11.5 mph - N/A   Overcast
11:35 PM 46.4 °F 41.5 °F 44.6 °F 93% 30.09 in 10.0 mi West 10.4 mph - N/A   Overcast
11:55 PM 46.4 °F 39.5 °F 44.6 °F 93% 30.09 in 10.0 mi West 17.3 mph - N/A   Overcast